Dewpoint
68 72 76 75 74 75 75 77 76 76 75 75 75 74 75 75 75 75 74 74 74 75 74 74 73 73 74 75 75 75 74 74 74 73 73 73 73 73 73 73 73 70 73
70 73 76 75 74 75 76 76 76 75 75 75 75 75 74 75 75 74 74 75 75 75 74 72 74 74 75 74 74 75 75 74 73 72 74 73 73 72 72 72 72 72 73
70 71 72 76 75 75 76 76 75 75 75 75 75 74 74 75 75 75 75 75 75 75 75 72 73 74 74 74 74 74 74 74 74 73 74 71 71 73 73 73 73 73 73
70 70 71 76 76 75 75 75 75 75 75 74 74 74 74 75 74 73 74 75 74 75 75 74 73 74 74 74 74 74 73 73 72 72 71 70 70 74 73 73 73 73 71
67 69 71 76 76 75 75 76 75 75 74 74 74 74 74 74 74 75 75 75 75 75 74 75 74 74 73 73 74 73 72 71 71 71 71 70 70 73 74 73 73 73 72
67 70 75 76 75 75 76 76 75 74 75 75 75 74 74 75 75 75 74 75 74 74 74 74 74 74 74 73 72 70 71 72 72 71 71 72 71 74 73 73 73 73 72
70 71 72 77 77 76 76 76 74 75 75 75 75 75 74 75 75 75 75 75 74 74 74 74 73 73 73 72 72 71 70 72 71 70 71 72 73 75 74 73 74 73 72
69 70 71 75 76 77 75 75 75 75 74 75 75 75 74 75 74 75 74 75 74 73 73 73 72 72 73 72 72 71 72 73 71 72 71 72 74 73 73 73 74 73 73
68 68 71 73 74 75 76 75 75 75 75 75 75 75 75 75 75 75 75 74 74 73 73 74 73 73 73 73 72 73 72 73 72 73 71 73 75 70 70 74 73 74 73
67 67 70 72 72 73 73 75 75 75 75 75 75 75 74 75 75 74 76 75 74 73 73 73 74 75 74 73 73 73 73 73 71 72 71 73 74 71 69 73 73 73 73
65 67 68 70 71 72 73 73 75 75 75 75 75 75 76 73 73 73 75 75 74 74 74 73 73 74 73 72 73 74 75 73 73 73 72 75 75 73 72 72 72 72 71
65 65 67 68 71 71 71 73 74 74 73 73 73 74 74 74 73 73 75 75 74 75 74 74 75 69 67 69 71 73 73 73 73 72 74 75 76 73 73 73 73 73 73
65 66 67 67 70 70 69 73 73 73 73 73 73 74 74 73 73 72 73 73 73 74 72 73 73 69 70 69 71 73 73 69 71 72 73 74 74 74 73 73 73 73 74
63 65 66 67 69 69 71 72 72 72 72 72 71 73 73 72 72 71 72 72 74 71 73 71 71 72 70 71 73 68 72 72 71 70 71 74 74 73 73 73 73 73 73
61 64 66 67 68 67 68 71 71 71 72 71 72 72 73 71 70 71 71 72 73 72 71 71 71 72 71 71 72 70 72 72 72 70 68 72 73 73 72 73 73 73 73
61 62 64 66 67 69 66 69 69 70 71 71 71 72 72 70 71 70 70 72 71 71 71 70 72 70 69 70 69 72 72 72 72 71 70 68 71 71 72 72 72 73 72
60 63 65 67 67 69 70 68 67 64 68 69 70 72 71 71 71 72 73 71 71 72 71 73 73 70 72 71 70 71 72 72 72 71 70 70 68 71 70 71 72 72 72
62 64 66 66 67 68 69 68 69 68 66 71 72 73 71 71 71 71 74 73 72 71 72 71 72 70 71 71 71 71 72 71 72 72 72 71 70 68 71 73 73 73 72
64 65 65 66 67 68 69 68 68 69 68 71 73 73 72 72 74 71 71 72 72 72 71 74 73 71 71 71 70 71 71 71 73 73 70 70 71 70 69 71 73 73 71
64 65 63 66 67 68 70 68 68 69 69 69 72 73 74 74 74 73 73 72 72 72 73 72 71 72 71 71 70 72 71 72 72 72 72 72 71 71 70 68 71 71 73
63 65 66 68 69 72 70 70 71 70 70 70 72 73 74 74 74 75 74 73 73 72 71 73 72 71 71 71 70 69 70 70 72 72 72 72 72 71 69 69 69 70 71
63 64 68 68 71 71 71 70 70 70 70 70 70 72 72 73 73 74 74 73 74 73 73 72 71 71 71 72 70 68 66 66 71 72 73 72 72 72 69 69 69 70 70
64 66 67 69 71 71 71 72 72 71 71 71 71 73 73 74 74 74 74 74 73 73 73 73 73 72 71 71 71 68 64 63 66 69 71 71 70 72 71 70 70 71 71
65 67 68 69 71 71 72 73 71 69 68 69 70 71 71 75 74 73 73 73 73 73 73 73 73 73 72 71 71 72 69 68 65 63 67 70 71 71 70 70 70 71 71
64 68 70 70 72 70 71 73 71 71 69 70 71 70 71 74 75 74 74 75 74 74 73 74 73 72 73 71 71 70 69 69 67 65 64 65 70 71 72 72 72 71 71
63 66 70 71 72 72 72 74 74 71 71 71 70 71 70 72 73 74 73 75 76 75 74 75 74 74 73 73 73 72 71 70 68 66 64 65 65 66 69 72 71 72 72
Lifted_Index
-2 -3 -4 -3 -3 -4 -5 -5 -4 -4 -4 -4 -4 -4 -4 -4 -4 -4 -3 -4 -4 -4 -4 -4 -4 -5 -5 -5 -5 -5 -5 -5 -4 -4 -4 -4 -4 -4 -4 -4 -4 -4 -4
-2 -3 -3 -3 -4 -4 -5 -5 -4 -4 -4 -4 -4 -4 -4 -4 -4 -4 -4 -4 -4 -5 -4 -4 -4 -5 -5 -5 -5 -5 -5 -5 -4 -4 -4 -4 -4 -4 -4 -4 -4 -4 -4
-3 -3 -3 -3 -4 -4 -4 -4 -4 -4 -4 -4 -4 -4 -4 -4 -4 -4 -4 -4 -4 -5 -4 -4 -4 -5 -5 -5 -5 -5 -5 -5 -5 -4 -4 -4 -4 -4 -4 -4 -4 -4 -4
-2 -2 -3 -4 -4 -4 -4 -4 -4 -4 -4 -4 -4 -4 -4 -4 -4 -4 -4 -4 -4 -5 -5 -4 -4 -5 -5 -5 -5 -5 -5 -5 -5 -4 -4 -4 -4 -5 -5 -5 -5 -4 -4
-2 -2 -3 -4 -4 -4 -4 -4 -4 -4 -4 -4 -4 -4 -4 -4 -4 -4 -4 -4 -5 -5 -5 -5 -5 -5 -5 -5 -5 -5 -5 -4 -4 -4 -4 -4 -4 -5 -5 -5 -5 -4 -4
-1 -2 -3 -4 -4 -4 -4 -4 -4 -4 -4 -4 -4 -4 -4 -4 -4 -4 -5 -5 -5 -4 -4 -5 -5 -5 -5 -5 -5 -4 -4 -5 -5 -4 -4 -4 -5 -5 -5 -5 -5 -5 -4
-2 -2 -3 -4 -4 -4 -4 -4 -4 -4 -4 -4 -4 -4 -4 -4 -4 -4 -4 -4 -4 -4 -4 -4 -4 -4 -4 -4 -4 -4 -4 -5 -5 -5 -4 -5 -5 -5 -5 -5 -5 -5 -5
-2 -2 -2 -3 -4 -4 -4 -4 -4 -4 -3 -4 -4 -4 -4 -4 -4 -4 -4 -4 -4 -4 -4 -4 -4 -4 -4 -4 -4 -4 -4 -4 -4 -4 -4 -5 -5 -4 -5 -5 -5 -5 -5
-1 -1 -2 -3 -4 -4 -4 -4 -4 -3 -3 -4 -4 -4 -4 -4 -4 -4 -4 -4 -3 -3 -3 -4 -4 -4 -4 -4 -4 -4 -3 -3 -3 -3 -4 -4 -4 -3 -4 -5 -5 -5 -5
-1 -1 -2 -3 -3 -4 -4 -4 -4 -4 -4 -4 -4 -4 -4 -4 -4 -4 -4 -4 -3 -3 -3 -4 -4 -4 -3 -3 -4 -3 -3 -3 -3 -3 -3 -4 -4 -3 -3 -4 -5 -5 -5
-1 -1 -2 -2 -3 -3 -4 -4 -4 -4 -4 -4 -4 -4 -4 -4 -3 -4 -4 -4 -3 -3 -4 -3 -3 -3 -2 -2 -3 -3 -2 -2 -2 -2 -3 -4 -4 -4 -4 -4 -5 -5 -4
-2 -2 -2 -2 -3 -3 -3 -3 -3 -3 -3 -3 -4 -4 -4 -3 -3 -3 -4 -4 -4 -4 -4 -4 -3 -1 -0 -1 -2 -2 -2 -1 -2 -2 -2 -3 -4 -4 -4 -4 -5 -5 -5
-2 -2 -2 -2 -3 -3 -3 -3 -3 -3 -3 -3 -3 -3 -3 -3 -3 -3 -3 -3 -3 -3 -3 -3 -3 -1 -0 -1 -1 -2 -1 -1 -1 -1 -2 -3 -3 -4 -4 -4 -4 -5 -5
-2 -2 -2 -2 -3 -3 -3 -3 -3 -3 -3 -3 -3 -3 -3 -3 -2 -2 -3 -3 -2 -2 -3 -3 -2 -1 -1 -1 -1 -1 -1 -1 -1 -1 -1 -2 -3 -3 -3 -3 -4 -4 -5
-2 -2 -3 -3 -3 -3 -3 -3 -3 -3 -3 -3 -3 -3 -3 -3 -2 -2 -2 -3 -2 -2 -2 -2 -2 -2 -1 -1 -2 -2 -2 -2 -1 -1 -1 -1 -2 -2 -2 -3 -3 -4 -4
-2 -2 -2 -3 -3 -3 -3 -3 -3 -3 -3 -3 -3 -3 -3 -3 -3 -3 -3 -3 -3 -2 -2 -2 -2 -2 -2 -2 -2 -2 -2 -2 -2 -1 -1 -1 -1 -1 -1 -2 -2 -3 -3
-2 -2 -2 -3 -3 -3 -3 -2 -2 -2 -2 -3 -3 -3 -3 -3 -3 -3 -3 -3 -3 -3 -2 -2 -2 -3 -2 -2 -2 -2 -2 -2 -2 -2 -1 -1 -1 -1 -1 -1 -2 -2 -2
-1 -2 -2 -3 -3 -3 -3 -2 -2 -2 -2 -3 -3 -3 -3 -3 -3 -3 -3 -3 -3 -3 -3 -3 -3 -3 -3 -3 -3 -3 -3 -3 -3 -2 -2 -2 -2 -1 -1 -1 -1 -2 -2
-1 -2 -2 -2 -3 -3 -3 -3 -2 -3 -3 -3 -4 -4 -4 -4 -4 -4 -3 -3 -4 -3 -3 -3 -3 -3 -3 -3 -3 -3 -3 -3 -3 -3 -3 -2 -2 -1 -1 -1 -1 -2 -2
-1 -1 -1 -2 -3 -3 -3 -3 -3 -3 -3 -4 -4 -4 -4 -4 -5 -4 -4 -4 -4 -4 -4 -4 -4 -3 -3 -3 -3 -3 -3 -3 -3 -3 -3 -3 -2 -2 -1 -1 -1 -1 -1
-1 -1 -2 -2 -3 -3 -3 -3 -4 -4 -4 -4 -4 -4 -5 -5 -5 -5 -4 -4 -4 -4 -4 -4 -4 -4 -4 -4 -4 -4 -3 -4 -4 -4 -3 -3 -3 -2 -2 -2 -2 -1 -1
-2 -2 -2 -3 -3 -4 -4 -4 -4 -4 -4 -4 -4 -4 -5 -5 -5 -5 -5 -5 -5 -5 -5 -5 -4 -4 -4 -4 -4 -4 -4 -3 -4 -4 -4 -3 -3 -3 -3 -3 -2 -2 -1
-3 -3 -3 -4 -4 -4 -4 -4 -5 -5 -5 -4 -4 -5 -5 -6 -6 -6 -6 -6 -5 -5 -5 -5 -5 -5 -5 -4 -4 -4 -4 -3 -3 -3 -3 -3 -3 -3 -3 -3 -3 -2 -2
-4 -4 -4 -5 -5 -5 -5 -5 -5 -5 -5 -5 -5 -5 -6 -7 -7 -7 -6 -6 -6 -6 -5 -5 -5 -5 -5 -5 -4 -4 -4 -4 -3 -3 -3 -2 -3 -3 -3 -3 -3 -3 -2
-4 -4 -5 -6 -6 -6 -6 -6 -6 -6 -5 -5 -6 -6 -6 -7 -8 -8 -8 -7 -7 -6 -6 -6 -6 -5 -5 -5 -5 -5 -4 -4 -3 -3 -2 -2 -2 -2 -3 -3 -3 -3 -3
-3 -4 -5 -6 -7 -7 -7 -7 -7 -6 -6 -6 -6 -6 -7 -7 -8 -8 -8 -8 -8 -7 -7 -6 -6 -6 -6 -6 -5 -5 -5 -4 -4 -3 -2 -2 -1 -2 -2 -2 -3 -3 -3